Time,TemperatureF,DewpointF,PressureIn,WindDirection,WindDirectionDegrees,WindSpeedMPH,WindSpeedGustMPH,Humidity,HourlyPrecipIn,Conditions,Clouds,dailyrainin,SoftwareType,DateUTC
2013-02-13 00:00:00,58.3,32.1,30.08,NNW,340,6.0,12.0,37,0.00,CLR,,0.00,WeatherDisplay:10.37,2013-02-13 06:00:00,
2013-02-13 00:05:00,58.4,32.9,30.07,NNW,330,3.0,10.0,38,0.00,CLR,,0.00,WeatherDisplay:10.37,2013-02-13 06:05:00,
2013-02-13 00:10:00,58.6,33.0,30.07,NNW,328,0.0,5.0,38,0.00,CLR,,0.00,WeatherDisplay:10.37,2013-02-13 06:10:00,
2013-02-13 00:15:00,59.0,33.4,30.07,NNW,338,0.0,0.0,38,0.00,CLR,,0.00,WeatherDisplay:10.37,2013-02-13 06:15:00,
2013-02-13 00:20:00,59.4,33.8,30.06,NNW,338,0.0,3.0,38,0.00,CLR,,0.00,WeatherDisplay:10.37,2013-02-13 06:20:00,
2013-02-13 00:25:00,59.9,31.4,30.06,NW,322,3.0,11.0,34,0.00,CLR,,0.00,WeatherDisplay:10.37,2013-02-13 06:25:00,
2013-02-13 00:30:00,59.9,32.2,30.06,NW,317,2.0,8.0,35,0.00,CLR,,0.00,WeatherDisplay:10.37,2013-02-13 06:30:00,
2013-02-13 00:35:00,59.9,32.2,30.05,NNW,328,3.0,10.0,35,0.00,CLR,,0.00,WeatherDisplay:10.37,2013-02-13 06:35:00,
2013-02-13 00:40:00,60.0,32.2,30.05,North,350,3.0,6.0,35,0.00,CLR,,0.00,WeatherDisplay:10.37,2013-02-13 06:40:00,
2013-02-13 00:45:00,60.1,31.6,30.05,North,5,0.0,4.0,34,0.00,CLR,,0.00,WeatherDisplay:10.37,2013-02-13 06:45:00,
2013-02-13 00:50:00,60.3,31.0,30.05,NNW,340,5.0,11.0,33,0.00,CLR,,0.00,WeatherDisplay:10.37,2013-02-13 06:50:00,
2013-02-13 00:55:00,60.3,31.8,30.04,NNW,333,5.0,10.0,34,0.00,CLR,,0.00,WeatherDisplay:10.37,2013-02-13 06:55:00,
2013-02-13 01:00:00,60.4,31.1,30.04,NW,325,7.0,12.0,33,0.00,CLR,,0.00,WeatherDisplay:10.37,2013-02-13 07:00:00,
2013-02-13 01:05:00,60.6,30.6,30.04,NW,315,3.0,7.0,32,0.00,CLR,,0.00,WeatherDisplay:10.37,2013-02-13 07:05:00,
2013-02-13 01:10:00,60.8,30.7,30.03,NW,315,0.0,6.0,32,0.00,CLR,,0.00,WeatherDisplay:10.37,2013-02-13 07:10:00,
2013-02-13 01:15:00,61.2,31.1,30.03,NW,315,1.0,6.0,32,0.00,CLR,,0.00,WeatherDisplay:10.37,2013-02-13 07:15:00,
2013-02-13 01:20:00,61.4,31.3,30.03,NW,315,1.0,5.0,32,0.00,CLR,,0.00,WeatherDisplay:10.37,2013-02-13 07:20:00,
2013-02-13 01:25:00,61.6,30.6,30.03,NNW,327,0.0,9.0,31,0.00,CLR,,0.00,WeatherDisplay:10.37,2013-02-13 07:25:00,
2013-02-13 01:30:00,61.9,30.9,30.03,NNW,335,1.0,5.0,31,0.00,CLR,,0.00,WeatherDisplay:10.37,2013-02-13 07:30:00,
2013-02-13 01:35:00,62.2,30.4,30.03,NNW,338,3.0,6.0,30,0.00,CLR,,0.00,WeatherDisplay:10.37,2013-02-13 07:35:00,
2013-02-13 01:40:00,62.4,30.5,30.02,NNW,338,1.0,6.0,30,0.00,CLR,,0.00,WeatherDisplay:10.37,2013-02-13 07:40:00,
2013-02-13 01:45:00,62.4,30.5,30.02,NNW,344,1.0,6.0,30,0.00,CLR,,0.00,WeatherDisplay:10.37,2013-02-13 07:45:00,
2013-02-13 01:50:00,62.4,30.5,30.02,North,353,2.0,4.0,30,0.00,CLR,,0.00,WeatherDisplay:10.37,2013-02-13 07:50:00,
2013-02-13 01:55:00,62.5,31.4,30.01,North,0,0.0,4.0,31,0.00,CLR,,0.00,WeatherDisplay:10.37,2013-02-13 07:55:00,
2013-02-13 02:00:00,62.5,30.6,30.01,North,0,0.0,3.0,30,0.00,CLR,,0.00,WeatherDisplay:10.37,2013-02-13 08:00:00,
2013-02-13 02:05:00,62.7,30.8,30.01,North,0,2.0,6.0,30,0.00,CLR,,0.00,WeatherDisplay:10.37,2013-02-13 08:05:00,
2013-02-13 02:10:00,63.2,31.2,30.01,NW,307,1.0,7.0,30,0.00,CLR,,0.00,WeatherDisplay:10.37,2013-02-13 08:10:00,
2013-02-13 02:15:00,63.5,30.6,30.01,West,276,1.0,6.0,29,0.00,CLR,,0.00,WeatherDisplay:10.37,2013-02-13 08:15:00,
2013-02-13 02:20:00,63.6,30.7,30.01,WNW,293,5.0,11.0,29,0.00,CLR,,0.00,WeatherDisplay:10.37,2013-02-13 08:20:00,
2013-02-13 02:25:00,63.5,29.8,30.01,WNW,296,6.0,11.0,28,0.00,CLR,,0.00,WeatherDisplay:10.37,2013-02-13 08:25:00,
2013-02-13 02:30:00,63.3,29.6,30.00,WNW,292,2.0,4.0,28,0.00,CLR,,0.00,WeatherDisplay:10.37,2013-02-13 08:30:00,
2013-02-13 02:35:00,63.4,29.7,30.00,WNW,292,3.0,6.0,28,0.00,CLR,,0.00,WeatherDisplay:10.37,2013-02-13 08:35:00,
2013-02-13 02:40:00,63.6,29.9,30.00,WNW,292,3.0,6.0,28,0.00,CLR,,0.00,WeatherDisplay:10.37,2013-02-13 08:40:00,
2013-02-13 02:45:00,63.6,29.9,30.00,WNW,292,5.0,7.0,28,0.00,CLR,,0.00,WeatherDisplay:10.37,2013-02-13 08:45:00,
2013-02-13 02:50:00,63.6,29.0,30.00,WNW,303,3.0,7.0,27,0.00,CLR,,0.00,WeatherDisplay:10.37,2013-02-13 08:50:00,
2013-02-13 02:55:00,63.7,30.0,30.00,NW,315,0.0,2.0,28,0.00,CLR,,0.00,WeatherDisplay:10.37,2013-02-13 08:55:00,
2013-02-13 03:00:00,63.9,29.2,30.00,NW,315,1.0,3.0,27,0.00,CLR,,0.00,WeatherDisplay:10.37,2013-02-13 09:00:00,
2013-02-13 03:05:00,63.9,29.2,30.00,NW,326,0.0,3.0,27,0.00,CLR,,0.00,WeatherDisplay:10.37,2013-02-13 09:05:00,
2013-02-13 03:10:00,63.8,29.1,30.00,North,6,0.0,6.0,27,0.00,CLR,,0.00,WeatherDisplay:10.37,2013-02-13 09:10:00,
2013-02-13 03:15:00,63.8,29.1,29.99,NNE,22,3.0,5.0,27,0.00,CLR,,0.00,WeatherDisplay:10.37,2013-02-13 09:15:00,
2013-02-13 03:20:00,63.9,29.2,30.00,NNE,22,0.0,3.0,27,0.00,CLR,,0.00,WeatherDisplay:10.37,2013-02-13 09:20:00,
2013-02-13 03:25:00,64.2,29.5,30.00,NNE,22,0.0,0.0,27,0.00,CLR,,0.00,WeatherDisplay:10.37,2013-02-13 09:25:00,
2013-02-13 03:30:00,64.5,29.7,30.00,NNE,22,3.0,6.0,27,0.00,CLR,,0.00,WeatherDisplay:10.37,2013-02-13 09:30:00,
2013-02-13 03:35:00,64.5,29.7,30.00,NNW,338,0.0,7.0,27,0.00,CLR,,0.00,WeatherDisplay:10.37,2013-02-13 09:35:00,
2013-02-13 03:40:00,64.3,28.7,30.00,NW,315,1.0,3.0,26,0.00,CLR,,0.00,WeatherDisplay:10.37,2013-02-13 09:40:00,
2013-02-13 03:45:00,64.4,28.7,30.00,NW,315,0.0,0.0,26,0.00,CLR,,0.00,WeatherDisplay:10.37,2013-02-13 09:45:00,
2013-02-13 03:50:00,64.5,28.8,30.00,NW,315,2.0,6.0,26,0.00,CLR,,0.00,WeatherDisplay:10.37,2013-02-13 09:50:00,
2013-02-13 03:55:00,64.7,29.0,30.00,NW,315,3.0,6.0,26,0.00,CLR,,0.00,WeatherDisplay:10.37,2013-02-13 09:55:00,
2013-02-13 04:00:00,64.7,28.0,30.00,NW,315,2.0,5.0,25,0.00,CLR,,0.00,WeatherDisplay:10.37,2013-02-13 10:00:00,
2013-02-13 04:05:00,64.6,28.9,30.00,NW,315,0.0,3.0,26,0.00,CLR,,0.00,WeatherDisplay:10.37,2013-02-13 10:05:00,
2013-02-13 04:25:00,64.0,29.3,30.00,NW,315,0.0,3.0,27,0.00,CLR,,0.00,WeatherDisplay:10.37,2013-02-13 10:25:00,
2013-02-13 04:30:00,63.9,30.1,30.00,NW,315,0.0,5.0,28,0.00,CLR,,0.00,WeatherDisplay:10.37,2013-02-13 10:30:00,
2013-02-13 04:35:00,63.9,30.1,30.00,NW,315,1.0,2.0,28,0.00,CLR,,0.00,WeatherDisplay:10.37,2013-02-13 10:35:00,
2013-02-13 04:40:00,63.7,30.0,30.00,NW,315,0.0,1.0,28,0.00,CLR,,0.00,WeatherDisplay:10.37,2013-02-13 10:40:00,
2013-02-13 04:45:00,63.5,30.6,30.00,NW,315,0.0,4.0,29,0.00,CLR,,0.00,WeatherDisplay:10.37,2013-02-13 10:45:00,
2013-02-13 04:50:00,63.3,31.3,30.00,NW,315,0.0,0.0,30,0.00,CLR,,0.00,WeatherDisplay:10.37,2013-02-13 10:50:00,
2013-02-13 04:55:00,62.9,31.0,30.00,NW,315,0.0,2.0,30,0.00,CLR,,0.00,WeatherDisplay:10.37,2013-02-13 10:55:00,
2013-02-13 05:00:00,62.7,30.8,30.00,NW,315,0.0,0.0,30,0.00,CLR,,0.00,WeatherDisplay:10.37,2013-02-13 11:00:00,
2013-02-13 05:05:00,62.4,30.5,30.00,NW,315,0.0,0.0,30,0.00,CLR,,0.00,WeatherDisplay:10.37,2013-02-13 11:05:00,
2013-02-13 05:10:00,62.2,31.2,30.00,NW,315,0.0,0.0,31,0.00,CLR,,0.00,WeatherDisplay:10.37,2013-02-13 11:10:00,
2013-02-13 05:15:00,61.8,30.8,30.01,NW,315,0.0,0.0,31,0.00,CLR,,0.00,WeatherDisplay:10.37,2013-02-13 11:15:00,
2013-02-13 05:20:00,61.4,31.3,30.01,NW,315,0.0,0.0,32,0.00,CLR,,0.00,WeatherDisplay:10.37,2013-02-13 11:20:00,
2013-02-13 05:25:00,60.9,30.8,30.01,NW,315,0.0,0.0,32,0.00,CLR,,0.00,WeatherDisplay:10.37,2013-02-13 11:25:00,
2013-02-13 05:30:00,60.4,30.4,30.01,NW,315,0.0,0.0,32,0.00,CLR,,0.00,WeatherDisplay:10.37,2013-02-13 11:30:00,
2013-02-13 05:35:00,60.0,30.8,30.01,NW,315,0.0,0.0,33,0.00,CLR,,0.00,WeatherDisplay:10.37,2013-02-13 11:35:00,
2013-02-13 05:40:00,59.4,30.3,30.01,NW,315,0.0,0.0,33,0.00,CLR,,0.00,WeatherDisplay:10.37,2013-02-13 11:40:00,
2013-02-13 05:45:00,59.0,30.6,30.01,NW,315,0.0,0.0,34,0.00,CLR,,0.00,WeatherDisplay:10.37,2013-02-13 11:45:00,
2013-02-13 05:50:00,58.3,30.7,30.01,NW,315,0.0,0.0,35,0.00,CLR,,0.00,WeatherDisplay:10.37,2013-02-13 11:50:00,
2013-02-13 05:55:00,57.6,30.1,30.01,NW,315,0.0,0.0,35,0.00,CLR,,0.00,WeatherDisplay:10.37,2013-02-13 11:55:00,
2013-02-13 06:00:00,57.1,31.7,30.02,NW,315,0.0,0.0,38,0.00,CLR,,0.00,WeatherDisplay:10.37,2013-02-13 12:00:00,
2013-02-13 06:05:00,56.6,31.9,30.01,NW,315,0.0,0.0,39,0.00,CLR,,0.00,WeatherDisplay:10.37,2013-02-13 12:05:00,
2013-02-13 06:10:00,56.1,31.5,30.01,NW,315,0.0,0.0,39,0.00,CLR,,0.00,WeatherDisplay:10.37,2013-02-13 12:10:00,
2013-02-13 06:15:00,55.6,31.6,30.02,NW,315,0.0,0.0,40,0.00,CLR,,0.00,WeatherDisplay:10.37,2013-02-13 12:15:00,
2013-02-13 06:20:00,55.0,31.7,30.02,NW,315,0.0,0.0,41,0.00,CLR,,0.00,WeatherDisplay:10.37,2013-02-13 12:20:00,
2013-02-13 06:25:00,54.1,31.5,30.02,NW,315,0.0,0.0,42,0.00,CLR,,0.00,WeatherDisplay:10.37,2013-02-13 12:25:00,
2013-02-13 06:30:00,53.5,31.5,30.02,NW,315,0.0,0.0,43,0.00,CLR,,0.00,WeatherDisplay:10.37,2013-02-13 12:30:00,
2013-02-13 06:35:00,52.9,31.6,30.03,NW,315,0.0,0.0,44,0.00,CLR,,0.00,WeatherDisplay:10.37,2013-02-13 12:35:00,
2013-02-13 06:40:00,52.3,31.6,30.03,NW,315,0.0,0.0,45,0.00,CLR,,0.00,WeatherDisplay:10.37,2013-02-13 12:40:00,
2013-02-13 06:45:00,51.7,30.5,30.03,NW,315,0.0,0.0,44,0.00,CLR,,0.00,WeatherDisplay:10.37,2013-02-13 12:45:00,
2013-02-13 06:50:00,51.3,30.1,30.03,NW,315,0.0,0.0,44,0.00,CLR,,0.00,WeatherDisplay:10.37,2013-02-13 12:50:00,
2013-02-13 06:55:00,51.1,29.9,30.03,NW,315,0.0,0.0,44,0.00,CLR,,0.00,WeatherDisplay:10.37,2013-02-13 12:55:00,
2013-02-13 07:00:00,51.0,29.8,30.03,NW,315,0.0,0.0,44,0.00,CLR,,0.00,WeatherDisplay:10.37,2013-02-13 13:00:00,
2013-02-13 07:05:00,50.9,29.7,30.03,NW,315,0.0,0.0,44,0.00,CLR,,0.00,WeatherDisplay:10.37,2013-02-13 13:05:00,
2013-02-13 07:10:00,50.8,29.6,30.03,NW,315,0.0,0.0,44,0.00,CLR,,0.00,WeatherDisplay:10.37,2013-02-13 13:10:00,
2013-02-13 07:15:00,50.7,30.1,30.04,NW,315,0.0,0.0,45,0.00,CLR,,0.00,WeatherDisplay:10.37,2013-02-13 13:15:00,
2013-02-13 07:20:00,50.5,29.4,30.03,NW,315,0.0,0.0,44,0.00,CLR,,0.00,WeatherDisplay:10.37,2013-02-13 13:20:00,
2013-02-13 07:25:00,50.4,29.3,30.04,NW,315,0.0,0.0,44,0.00,CLR,,0.00,WeatherDisplay:10.37,2013-02-13 13:25:00,
2013-02-13 07:30:00,50.2,29.7,30.04,NW,315,0.0,0.0,45,0.00,CLR,,0.00,WeatherDisplay:10.37,2013-02-13 13:30:00,
2013-02-13 07:35:00,50.0,30.5,30.04,NW,315,0.0,0.0,47,0.00,CLR,,0.00,WeatherDisplay:10.37,2013-02-13 13:35:00,
2013-02-13 07:40:00,49.6,30.2,30.04,NW,315,0.0,0.0,47,0.00,CLR,,0.00,WeatherDisplay:10.37,2013-02-13 13:40:00,
2013-02-13 07:45:00,49.4,31.0,30.04,NW,315,0.0,0.0,49,0.00,CLR,,0.00,WeatherDisplay:10.37,2013-02-13 13:45:00,
2013-02-13 07:50:00,49.1,31.2,30.04,NW,315,0.0,0.0,50,0.00,CLR,,0.00,WeatherDisplay:10.37,2013-02-13 13:50:00,
2013-02-13 07:55:00,48.7,30.9,30.05,NW,315,0.0,0.0,50,0.00,CLR,,0.00,WeatherDisplay:10.37,2013-02-13 13:55:00,
2013-02-13 08:00:00,48.3,31.0,30.05,NW,315,0.0,0.0,51,0.00,CLR,,0.00,WeatherDisplay:10.37,2013-02-13 14:00:00,
2013-02-13 08:05:00,47.8,30.5,30.05,NW,315,0.0,0.0,51,0.00,CLR,,0.00,WeatherDisplay:10.37,2013-02-13 14:05:00,
2013-02-13 08:10:00,47.4,29.7,30.05,NW,315,0.0,0.0,50,0.00,CLR,,0.00,WeatherDisplay:10.37,2013-02-13 14:10:00,
2013-02-13 08:15:00,47.0,29.8,30.05,NW,315,0.0,0.0,51,0.00,CLR,,0.00,WeatherDisplay:10.37,2013-02-13 14:15:00,
2013-02-13 08:20:00,46.5,30.3,30.05,NW,315,0.0,0.0,53,0.00,CLR,,0.00,WeatherDisplay:10.37,2013-02-13 14:20:00,
2013-02-13 08:25:00,46.0,29.8,30.06,NW,315,0.0,0.0,53,0.00,CLR,,0.00,WeatherDisplay:10.37,2013-02-13 14:25:00,
2013-02-13 08:30:00,45.4,29.3,30.06,NW,315,0.0,0.0,53,0.00,CLR,,0.00,WeatherDisplay:10.37,2013-02-13 14:30:00,
2013-02-13 08:35:00,45.0,30.2,30.06,NW,315,0.0,0.0,56,0.00,CLR,,0.00,WeatherDisplay:10.37,2013-02-13 14:35:00,
2013-02-13 08:40:00,44.5,29.8,30.06,NW,315,0.0,0.0,56,0.00,CLR,,0.00,WeatherDisplay:10.37,2013-02-13 14:40:00,
2013-02-13 08:45:00,44.1,30.3,30.06,NW,315,0.0,0.0,58,0.00,CLR,,0.00,WeatherDisplay:10.37,2013-02-13 14:45:00,
2013-02-13 08:50:00,43.8,30.0,30.07,NW,315,0.0,0.0,58,0.00,CLR,,0.00,WeatherDisplay:10.37,2013-02-13 14:50:00,
2013-02-13 08:55:00,43.6,30.2,30.07,NW,315,0.0,0.0,59,0.00,CLR,,0.00,WeatherDisplay:10.37,2013-02-13 14:55:00,
2013-02-13 09:00:00,43.4,30.0,30.07,NW,315,0.0,0.0,59,0.00,CLR,,0.00,WeatherDisplay:10.37,2013-02-13 15:00:00,
2013-02-13 09:05:00,43.1,30.1,30.07,NW,315,0.0,0.0,60,0.00,CLR,,0.00,WeatherDisplay:10.37,2013-02-13 15:05:00,
2013-02-13 09:10:00,42.9,30.0,30.08,NW,315,0.0,0.0,60,0.00,CLR,,0.00,WeatherDisplay:10.37,2013-02-13 15:10:00,
2013-02-13 09:15:00,42.6,30.1,30.08,NW,315,0.0,0.0,61,0.00,CLR,,0.00,WeatherDisplay:10.37,2013-02-13 15:15:00,
2013-02-13 09:20:00,42.4,29.9,30.08,NW,315,0.0,0.0,61,0.00,CLR,,0.00,WeatherDisplay:10.37,2013-02-13 15:20:00,
2013-02-13 09:25:00,42.2,29.3,30.08,NW,315,0.0,0.0,60,0.00,CLR,,0.00,WeatherDisplay:10.37,2013-02-13 15:25:00,
2013-02-13 09:30:00,42.0,29.5,30.08,NW,315,0.0,0.0,61,0.00,CLR,,0.00,WeatherDisplay:10.37,2013-02-13 15:30:00,
2013-02-13 09:35:00,41.9,29.8,30.08,NW,315,0.0,0.0,62,0.00,CLR,,0.00,WeatherDisplay:10.37,2013-02-13 15:35:00,
2013-02-13 09:40:00,41.7,29.6,30.08,NW,315,0.0,0.0,62,0.00,CLR,,0.00,WeatherDisplay:10.37,2013-02-13 15:40:00,
2013-02-13 09:45:00,41.6,29.5,30.08,NW,315,0.0,0.0,62,0.00,CLR,,0.00,WeatherDisplay:10.37,2013-02-13 15:45:00,
2013-02-13 09:50:00,41.5,29.8,30.08,NW,315,0.0,0.0,63,0.00,CLR,,0.00,WeatherDisplay:10.37,2013-02-13 15:50:00,
2013-02-13 09:55:00,41.4,29.7,30.08,NW,315,0.0,0.0,63,0.00,CLR,,0.00,WeatherDisplay:10.37,2013-02-13 15:55:00,
2013-02-13 10:00:00,41.3,29.6,30.09,NW,315,0.0,0.0,63,0.00,CLR,,0.00,WeatherDisplay:10.37,2013-02-13 16:00:00,
2013-02-13 10:05:00,41.2,29.9,30.09,NW,315,0.0,0.0,64,0.00,CLR,,0.00,WeatherDisplay:10.37,2013-02-13 16:05:00,
2013-02-13 10:10:00,41.0,29.4,30.09,NW,315,0.0,0.0,63,0.00,CLR,,0.00,WeatherDisplay:10.37,2013-02-13 16:10:00,
2013-02-13 10:15:00,40.9,29.7,30.09,NW,315,0.0,0.0,64,0.00,CLR,,0.00,WeatherDisplay:10.37,2013-02-13 16:15:00,
2013-02-13 10:20:00,40.8,29.6,30.09,NW,315,0.0,0.0,64,0.00,CLR,,0.00,WeatherDisplay:10.37,2013-02-13 16:20:00,
2013-02-13 10:25:00,40.7,29.5,30.09,NW,315,0.0,0.0,64,0.00,CLR,,0.00,WeatherDisplay:10.37,2013-02-13 16:25:00,
2013-02-13 10:30:00,40.6,29.7,30.09,NW,315,0.0,0.0,65,0.00,CLR,,0.00,WeatherDisplay:10.37,2013-02-13 16:30:00,
2013-02-13 10:35:00,40.4,29.6,30.09,NW,315,0.0,0.0,65,0.00,CLR,,0.00,WeatherDisplay:10.37,2013-02-13 16:35:00,
2013-02-13 10:40:00,40.3,29.8,30.09,NW,315,0.0,0.0,66,0.00,CLR,,0.00,WeatherDisplay:10.37,2013-02-13 16:40:00,
2013-02-13 10:45:00,40.2,29.7,30.09,NW,315,0.0,0.0,66,0.00,CLR,,0.00,WeatherDisplay:10.37,2013-02-13 16:45:00,
2013-02-13 10:50:00,40.1,30.0,30.09,NW,315,0.0,0.0,67,0.00,CLR,,0.00,WeatherDisplay:10.37,2013-02-13 16:50:00,
2013-02-13 10:55:00,40.0,29.9,30.09,NW,315,0.0,0.0,67,0.00,CLR,,0.00,WeatherDisplay:10.37,2013-02-13 16:55:00,
2013-02-13 11:00:00,39.9,30.2,30.09,NW,315,0.0,0.0,68,0.00,CLR,,0.00,WeatherDisplay:10.37,2013-02-13 17:00:00,
2013-02-13 11:05:00,39.9,30.2,30.09,NW,315,0.0,0.0,68,0.00,CLR,,0.00,WeatherDisplay:10.37,2013-02-13 17:05:00,
2013-02-13 11:10:00,39.8,30.5,30.09,NW,315,0.0,0.0,69,0.00,CLR,,0.00,WeatherDisplay:10.37,2013-02-13 17:10:00,
2013-02-13 11:15:00,39.8,30.5,30.09,NW,315,0.0,0.0,69,0.00,CLR,,0.00,WeatherDisplay:10.37,2013-02-13 17:15:00,
2013-02-13 11:20:00,39.8,30.8,30.09,NW,315,0.0,0.0,70,0.00,CLR,,0.00,WeatherDisplay:10.37,2013-02-13 17:20:00,
2013-02-13 11:25:00,39.7,30.7,30.09,NW,315,0.0,0.0,70,0.00,CLR,,0.00,WeatherDisplay:10.37,2013-02-13 17:25:00,
2013-02-13 11:30:00,39.7,30.7,30.09,NW,315,0.0,0.0,70,0.00,CLR,,0.00,WeatherDisplay:10.37,2013-02-13 17:30:00,
2013-02-13 11:35:00,39.7,30.7,30.09,NW,315,0.0,0.0,70,0.00,CLR,,0.00,WeatherDisplay:10.37,2013-02-13 17:35:00,
2013-02-13 11:40:00,39.7,30.7,30.09,NW,315,0.0,0.0,70,0.00,CLR,,0.00,WeatherDisplay:10.37,2013-02-13 17:40:00,
2013-02-13 11:45:00,39.7,30.7,30.09,NW,315,0.0,0.0,70,0.00,CLR,,0.00,WeatherDisplay:10.37,2013-02-13 17:45:00,
2013-02-13 11:50:00,39.6,30.6,30.09,NW,315,0.0,0.0,70,0.00,CLR,,0.00,WeatherDisplay:10.37,2013-02-13 17:50:00,
2013-02-13 11:55:00,39.6,31.0,30.09,NW,315,0.0,0.0,71,0.00,CLR,,0.00,WeatherDisplay:10.37,2013-02-13 17:55:00,
2013-02-13 12:00:00,39.5,30.9,30.09,NW,315,0.0,0.0,71,0.00,CLR,,0.00,WeatherDisplay:10.37,2013-02-13 18:00:00,
2013-02-13 12:05:00,39.5,30.5,30.09,NW,315,0.0,0.0,70,0.00,CLR,,0.00,WeatherDisplay:10.37,2013-02-13 18:05:00,
2013-02-13 12:10:00,39.3,30.7,30.09,NW,315,0.0,0.0,71,0.00,CLR,,0.00,WeatherDisplay:10.37,2013-02-13 18:10:00,
2013-02-13 12:15:00,39.2,30.6,30.09,NW,315,0.0,0.0,71,0.00,CLR,,0.00,WeatherDisplay:10.37,2013-02-13 18:15:00,
2013-02-13 12:20:00,39.1,30.5,30.09,NW,315,0.0,0.0,71,0.00,CLR,,0.00,WeatherDisplay:10.37,2013-02-13 18:20:00,
2013-02-13 12:25:00,39.1,30.8,30.09,NW,315,0.0,0.0,72,0.00,CLR,,0.00,WeatherDisplay:10.37,2013-02-13 18:25:00,
2013-02-13 12:30:00,39.0,30.7,30.09,NW,315,0.0,0.0,72,0.00,CLR,,0.00,WeatherDisplay:10.37,2013-02-13 18:30:00,
2013-02-13 12:35:00,38.9,30.6,30.09,NW,315,0.0,0.0,72,0.00,CLR,,0.00,WeatherDisplay:10.37,2013-02-13 18:35:00,
2013-02-13 12:40:00,38.8,30.5,30.09,NW,315,0.0,0.0,72,0.00,CLR,,0.00,WeatherDisplay:10.37,2013-02-13 18:40:00,
2013-02-13 12:45:00,38.8,30.9,30.09,NW,315,0.0,0.0,73,0.00,CLR,,0.00,WeatherDisplay:10.37,2013-02-13 18:45:00,
2013-02-13 12:50:00,38.7,30.8,30.09,NW,315,0.0,0.0,73,0.00,CLR,,0.00,WeatherDisplay:10.37,2013-02-13 18:50:00,
2013-02-13 12:55:00,57.3,46.4,30.00,North,360,6.9,6.9,67,0.00,CLR,,0.02,WeatherDisplay:10.37,2013-02-13 18:55:00,
2013-02-13 13:00:00,38.5,30.9,30.09,NW,315,0.0,0.0,74,0.00,CLR,,0.00,WeatherDisplay:10.37,2013-02-13 19:00:00,
2013-02-13 13:05:00,38.4,30.8,30.09,NW,315,0.0,0.0,74,0.00,CLR,,0.00,WeatherDisplay:10.37,2013-02-13 19:05:00,
2013-02-13 13:10:00,38.4,30.8,30.09,NW,315,0.0,0.0,74,0.00,CLR,,0.00,WeatherDisplay:10.37,2013-02-13 19:10:00,
2013-02-13 13:15:00,38.3,30.7,30.09,NW,315,0.0,0.0,74,0.00,CLR,,0.00,WeatherDisplay:10.37,2013-02-13 19:15:00,
2013-02-13 13:20:00,38.1,30.5,30.09,NW,315,0.0,0.0,74,0.00,CLR,,0.00,WeatherDisplay:10.37,2013-02-13 19:20:00,
2013-02-13 13:25:00,38.0,30.8,30.09,NW,315,0.0,0.0,75,0.00,CLR,,0.00,WeatherDisplay:10.37,2013-02-13 19:25:00,
2013-02-13 13:30:00,37.9,30.7,30.09,NW,315,0.0,0.0,75,0.00,CLR,,0.00,WeatherDisplay:10.37,2013-02-13 19:30:00,
2013-02-13 13:35:00,37.8,30.6,30.09,NW,315,0.0,0.0,75,0.00,CLR,,0.00,WeatherDisplay:10.37,2013-02-13 19:35:00,
2013-02-13 13:40:00,37.7,30.5,30.09,NW,315,0.0,0.0,75,0.00,CLR,,0.00,WeatherDisplay:10.37,2013-02-13 19:40:00,
2013-02-13 13:45:00,37.6,30.4,30.09,NW,315,0.0,0.0,75,0.00,CLR,,0.00,WeatherDisplay:10.37,2013-02-13 19:45:00,
2013-02-13 13:50:00,37.5,30.6,30.09,NW,315,0.0,0.0,76,0.00,CLR,,0.00,WeatherDisplay:10.37,2013-02-13 19:50:00,
2013-02-13 13:55:00,37.4,30.5,30.09,NW,315,0.0,0.0,76,0.00,CLR,,0.00,WeatherDisplay:10.37,2013-02-13 19:55:00,
2013-02-13 14:00:00,37.3,30.7,30.09,NW,315,0.0,0.0,77,0.00,CLR,,0.00,WeatherDisplay:10.37,2013-02-13 20:00:00,
2013-02-13 14:05:00,37.3,31.1,30.09,NW,315,0.0,0.0,78,0.00,CLR,,0.00,WeatherDisplay:10.37,2013-02-13 20:05:00,
2013-02-13 14:10:00,37.2,31.0,30.09,NW,315,0.0,0.0,78,0.00,CLR,,0.00,WeatherDisplay:10.37,2013-02-13 20:10:00,
2013-02-13 14:15:00,37.1,30.9,30.09,NW,315,0.0,0.0,78,0.00,CLR,,0.00,WeatherDisplay:10.37,2013-02-13 20:15:00,
2013-02-13 14:20:00,37.0,30.8,30.08,NW,315,0.0,0.0,78,0.00,CLR,,0.00,WeatherDisplay:10.37,2013-02-13 20:20:00,
2013-02-13 14:25:00,36.9,30.7,30.08,NW,315,0.0,0.0,78,0.00,CLR,,0.00,WeatherDisplay:10.37,2013-02-13 20:25:00,
2013-02-13 14:30:00,36.9,30.7,30.08,NW,315,0.0,0.0,78,0.00,CLR,,0.00,WeatherDisplay:10.37,2013-02-13 20:30:00,
2013-02-13 14:35:00,36.8,30.9,30.08,NW,315,0.0,0.0,79,0.00,CLR,,0.00,WeatherDisplay:10.37,2013-02-13 20:35:00,
2013-02-13 14:40:00,36.7,30.8,30.08,NW,315,0.0,0.0,79,0.00,CLR,,0.00,WeatherDisplay:10.37,2013-02-13 20:40:00,
2013-02-13 14:45:00,36.6,30.7,30.08,NW,315,0.0,0.0,79,0.00,CLR,,0.00,WeatherDisplay:10.37,2013-02-13 20:45:00,
2013-02-13 14:50:00,36.6,30.7,30.08,NW,315,0.0,0.0,79,0.00,CLR,,0.00,WeatherDisplay:10.37,2013-02-13 20:50:00,
2013-02-13 14:55:00,36.5,30.6,30.08,NW,315,0.0,0.0,79,0.00,CLR,,0.00,WeatherDisplay:10.37,2013-02-13 20:55:00,
2013-02-13 15:00:00,36.4,30.5,30.08,NW,315,0.0,0.0,79,0.00,CLR,,0.00,WeatherDisplay:10.37,2013-02-13 21:00:00,
2013-02-13 15:05:00,36.4,30.5,30.08,NW,315,0.0,0.0,79,0.00,CLR,,0.00,WeatherDisplay:10.37,2013-02-13 21:05:00,
2013-02-13 15:10:00,36.3,30.7,30.08,NW,315,0.0,0.0,80,0.00,CLR,,0.00,WeatherDisplay:10.37,2013-02-13 21:10:00,
2013-02-13 15:15:00,36.3,30.7,30.08,NW,315,0.0,0.0,80,0.00,CLR,,0.00,WeatherDisplay:10.37,2013-02-13 21:15:00,
2013-02-13 15:20:00,36.2,30.6,30.08,NW,315,0.0,0.0,80,0.00,CLR,,0.00,WeatherDisplay:10.37,2013-02-13 21:20:00,
2013-02-13 15:25:00,36.2,30.6,30.08,NW,315,0.0,0.0,80,0.00,CLR,,0.00,WeatherDisplay:10.37,2013-02-13 21:25:00,
2013-02-13 15:30:00,36.1,30.5,30.08,NW,315,0.0,0.0,80,0.00,CLR,,0.00,WeatherDisplay:10.37,2013-02-13 21:30:00,
2013-02-13 15:35:00,36.2,30.9,30.08,NW,315,0.0,0.0,81,0.00,CLR,,0.00,WeatherDisplay:10.37,2013-02-13 21:35:00,
2013-02-13 15:40:00,36.2,30.9,30.08,NW,315,0.0,0.0,81,0.00,CLR,,0.00,WeatherDisplay:10.37,2013-02-13 21:40:00,
2013-02-13 15:45:00,36.2,30.9,30.08,NW,315,0.0,0.0,81,0.00,CLR,,0.00,WeatherDisplay:10.37,2013-02-13 21:45:00,
2013-02-13 15:50:00,36.1,30.8,30.08,NW,315,0.0,0.0,81,0.00,CLR,,0.00,WeatherDisplay:10.37,2013-02-13 21:50:00,
2013-02-13 15:55:00,36.1,30.8,30.08,NW,315,0.0,0.0,81,0.00,CLR,,0.00,WeatherDisplay:10.37,2013-02-13 21:55:00,
2013-02-13 16:00:00,36.1,30.8,30.08,NW,315,0.0,0.0,81,0.00,CLR,,0.00,WeatherDisplay:10.37,2013-02-13 22:00:00,
2013-02-13 16:05:00,36.0,30.4,30.09,NW,315,2.0,4.0,80,0.00,CLR,,0.00,WeatherDisplay:10.37,2013-02-13 22:05:00,
2013-02-13 16:10:00,35.9,30.3,30.09,NW,315,2.0,5.0,80,0.00,CLR,,0.00,WeatherDisplay:10.37,2013-02-13 22:10:00,
2013-02-13 16:15:00,35.8,30.2,30.09,NW,315,1.0,5.0,80,0.00,CLR,,0.00,WeatherDisplay:10.37,2013-02-13 22:15:00,
2013-02-13 16:20:00,35.6,30.0,30.08,NW,315,0.0,4.0,80,0.00,CLR,,0.00,WeatherDisplay:10.37,2013-02-13 22:20:00,
2013-02-13 16:25:00,35.5,29.9,30.08,NW,315,0.0,3.0,80,0.00,CLR,,0.00,WeatherDisplay:10.37,2013-02-13 22:25:00,
2013-02-13 16:30:00,35.4,29.8,30.08,NW,315,0.0,3.0,80,0.00,CLR,,0.00,WeatherDisplay:10.37,2013-02-13 22:30:00,
2013-02-13 16:35:00,35.3,29.7,30.09,NW,315,0.0,2.0,80,0.00,CLR,,0.00,WeatherDisplay:10.37,2013-02-13 22:35:00,
2013-02-13 16:40:00,35.2,30.0,30.09,NW,315,0.0,0.0,81,0.00,CLR,,0.00,WeatherDisplay:10.37,2013-02-13 22:40:00,
2013-02-13 16:45:00,35.2,30.0,30.09,NW,315,0.0,0.0,81,0.00,CLR,,0.00,WeatherDisplay:10.37,2013-02-13 22:45:00,
2013-02-13 16:50:00,35.2,30.0,30.09,NW,315,1.0,4.0,81,0.00,CLR,,0.00,WeatherDisplay:10.37,2013-02-13 22:50:00,
2013-02-13 16:55:00,35.2,30.0,30.09,NW,315,0.0,4.0,81,0.00,CLR,,0.00,WeatherDisplay:10.37,2013-02-13 22:55:00,
2013-02-13 17:00:00,35.1,29.9,30.09,NW,315,0.0,0.0,81,0.00,CLR,,0.00,WeatherDisplay:10.37,2013-02-13 23:00:00,
2013-02-13 17:05:00,35.0,29.8,30.09,NW,315,0.0,0.0,81,0.00,CLR,,0.00,WeatherDisplay:10.37,2013-02-13 23:05:00,
2013-02-13 17:10:00,35.0,30.1,30.09,NW,315,0.0,5.0,82,0.00,CLR,,0.00,WeatherDisplay:10.37,2013-02-13 23:10:00,
2013-02-13 17:15:00,34.9,30.0,30.09,NW,315,2.0,5.0,82,0.00,CLR,,0.00,WeatherDisplay:10.37,2013-02-13 23:15:00,
2013-02-13 17:20:00,34.8,29.9,30.09,NW,315,3.0,5.0,82,0.00,CLR,,0.00,WeatherDisplay:10.37,2013-02-13 23:20:00,
2013-02-13 17:25:00,34.8,29.9,30.09,NW,315,3.0,5.0,82,0.00,CLR,,0.00,WeatherDisplay:10.37,2013-02-13 23:25:00,
2013-02-13 17:30:00,34.5,29.3,30.09,NW,315,0.0,6.0,81,0.00,CLR,,0.00,WeatherDisplay:10.37,2013-02-13 23:30:00,
2013-02-13 17:35:00,34.3,29.4,30.09,NW,315,0.0,4.0,82,0.00,CLR,,0.00,WeatherDisplay:10.37,2013-02-13 23:35:00,
2013-02-13 17:40:00,34.3,29.4,30.09,NW,315,0.0,0.0,82,0.00,CLR,,0.00,WeatherDisplay:10.37,2013-02-13 23:40:00,
2013-02-13 17:45:00,34.3,29.4,30.09,NW,315,0.0,0.0,82,0.00,CLR,,0.00,WeatherDisplay:10.37,2013-02-13 23:45:00,
2013-02-13 17:50:00,34.3,29.7,30.10,NW,315,0.0,0.0,83,0.00,CLR,,0.00,WeatherDisplay:10.37,2013-02-13 23:50:00,
2013-02-13 17:55:00,34.3,29.7,30.10,NW,315,0.0,0.0,83,0.00,CLR,,0.00,WeatherDisplay:10.37,2013-02-13 23:55:00,
2013-02-13 18:00:00,34.4,30.1,30.10,NW,315,0.0,0.0,84,0.00,CLR,,0.00,WeatherDisplay:10.37,2013-02-14 00:00:00,
2013-02-13 18:05:00,34.5,30.2,30.10,NW,315,0.0,2.0,84,0.00,CLR,,0.00,WeatherDisplay:10.37,2013-02-14 00:05:00,
2013-02-13 18:10:00,34.6,30.3,30.10,NW,315,0.0,3.0,84,0.00,CLR,,0.00,WeatherDisplay:10.37,2013-02-14 00:10:00,
2013-02-13 18:15:00,34.6,30.3,30.10,NW,315,0.0,0.0,84,0.00,CLR,,0.00,WeatherDisplay:10.37,2013-02-14 00:15:00,
2013-02-13 18:20:00,34.6,30.3,30.10,NW,315,0.0,0.0,84,0.00,CLR,,0.00,WeatherDisplay:10.37,2013-02-14 00:20:00,
2013-02-13 18:25:00,34.6,30.3,30.10,NW,315,1.0,5.0,84,0.00,CLR,,0.00,WeatherDisplay:10.37,2013-02-14 00:25:00,
2013-02-13 18:30:00,34.8,30.8,30.10,NW,315,2.0,6.0,85,0.00,CLR,,0.00,WeatherDisplay:10.37,2013-02-14 00:30:00,
2013-02-13 18:35:00,34.8,30.8,30.11,NW,315,2.0,5.0,85,0.00,CLR,,0.00,WeatherDisplay:10.37,2013-02-14 00:35:00,
2013-02-13 18:40:00,34.9,30.8,30.11,NW,315,1.0,5.0,85,0.00,CLR,,0.00,WeatherDisplay:10.37,2013-02-14 00:40:00,
2013-02-13 18:45:00,35.2,31.1,30.11,NW,315,3.0,6.0,85,0.00,CLR,,0.00,WeatherDisplay:10.37,2013-02-14 00:45:00,
2013-02-13 18:50:00,35.4,31.3,30.11,NW,315,3.0,6.0,85,0.00,CLR,,0.00,WeatherDisplay:10.37,2013-02-14 00:50:00,
2013-02-13 18:55:00,35.6,33.0,30.11,NW,324,0.0,4.0,90,0.00,CLR,,0.00,WeatherDisplay:10.37,2013-02-14 00:55:00,
2013-02-13 19:00:00,35.9,31.5,30.11,NNW,338,1.0,6.0,84,0.00,CLR,,0.00,WeatherDisplay:10.37,2013-02-14 01:00:00,
2013-02-13 19:05:00,36.3,31.9,30.11,NNW,338,0.0,4.0,84,0.00,CLR,,0.00,WeatherDisplay:10.37,2013-02-14 01:05:00,
2013-02-13 19:10:00,36.7,32.3,30.11,NNW,338,0.0,4.0,84,0.00,CLR,,0.00,WeatherDisplay:10.37,2013-02-14 01:10:00,
2013-02-13 19:15:00,37.2,32.8,30.11,NNW,338,0.0,2.0,84,0.00,CLR,,0.00,WeatherDisplay:10.37,2013-02-14 01:15:00,
2013-02-13 19:20:00,37.8,33.4,30.11,NNW,338,2.0,5.0,84,0.00,CLR,,0.00,WeatherDisplay:10.37,2013-02-14 01:20:00,
2013-02-13 19:25:00,38.6,33.9,30.12,NNW,338,0.0,4.0,83,0.00,CLR,,0.00,WeatherDisplay:10.37,2013-02-14 01:25:00,
2013-02-13 19:30:00,39.3,34.3,30.12,NNW,338,2.0,4.0,82,0.00,CLR,,0.00,WeatherDisplay:10.37,2013-02-14 01:30:00,
2013-02-13 19:35:00,40.1,35.0,30.12,NNW,338,0.0,3.0,82,0.00,CLR,,0.00,WeatherDisplay:10.37,2013-02-14 01:35:00,
2013-02-13 19:40:00,40.8,35.1,30.12,NNW,338,0.0,0.0,80,0.00,CLR,,0.00,WeatherDisplay:10.37,2013-02-14 01:40:00,
2013-02-13 19:45:00,41.5,35.5,30.12,NNW,338,0.0,0.0,79,0.00,CLR,,0.00,WeatherDisplay:10.37,2013-02-14 01:45:00,
2013-02-13 19:50:00,42.4,36.3,30.12,NNW,338,0.0,0.0,79,0.00,CLR,,0.00,WeatherDisplay:10.37,2013-02-14 01:50:00,
2013-02-13 19:55:00,43.2,36.8,30.12,NNW,338,0.0,0.0,78,0.00,CLR,,0.00,WeatherDisplay:10.37,2013-02-14 01:55:00,
2013-02-13 20:00:00,44.0,37.3,30.12,NNW,338,0.0,0.0,77,0.00,CLR,,0.00,WeatherDisplay:10.37,2013-02-14 02:00:00,
2013-02-13 20:05:00,44.9,37.8,30.12,NNW,338,0.0,0.0,76,0.00,CLR,,0.00,WeatherDisplay:10.37,2013-02-14 02:05:00,
2013-02-13 20:10:00,45.8,38.3,30.12,NNW,338,0.0,0.0,75,0.00,CLR,,0.00,WeatherDisplay:10.37,2013-02-14 02:10:00,
2013-02-13 20:15:00,47.4,38.8,30.13,NNW,330,2.0,7.0,72,0.00,CLR,,0.00,WeatherDisplay:10.37,2013-02-14 02:15:00,
2013-02-13 20:20:00,48.8,38.7,30.13,NW,321,1.0,5.0,68,0.00,CLR,,0.00,WeatherDisplay:10.37,2013-02-14 02:20:00,
2013-02-13 20:25:00,49.8,38.9,30.13,NW,315,2.0,6.0,66,0.00,CLR,,0.00,WeatherDisplay:10.37,2013-02-14 02:25:00,
2013-02-13 20:30:00,50.6,39.3,30.13,NW,308,5.0,7.0,65,0.00,CLR,,0.00,WeatherDisplay:10.37,2013-02-14 02:30:00,
2013-02-13 20:35:00,51.3,39.1,30.13,WNW,295,2.0,9.0,63,0.00,CLR,,0.00,WeatherDisplay:10.37,2013-02-14 02:35:00,
2013-02-13 20:40:00,51.8,39.2,30.13,WNW,292,5.0,6.0,62,0.00,CLR,,0.00,WeatherDisplay:10.37,2013-02-14 02:40:00,
2013-02-13 20:45:00,52.4,38.9,30.13,West,277,3.0,7.0,60,0.00,CLR,,0.00,WeatherDisplay:10.37,2013-02-14 02:45:00,
2013-02-13 20:50:00,52.8,39.3,30.13,West,270,3.0,7.0,60,0.00,CLR,,0.00,WeatherDisplay:10.37,2013-02-14 02:50:00,
2013-02-13 20:55:00,53.3,38.4,30.13,West,270,6.0,8.0,57,0.00,CLR,,0.00,WeatherDisplay:10.37,2013-02-14 02:55:00,
2013-02-13 21:00:00,53.7,39.3,30.13,West,270,3.0,10.0,58,0.00,CLR,,0.00,WeatherDisplay:10.37,2013-02-14 03:00:00,
2013-02-13 21:05:00,54.4,39.0,30.13,West,260,5.0,9.0,56,0.00,CLR,,0.00,WeatherDisplay:10.37,2013-02-14 03:05:00,
2013-02-13 21:10:00,54.7,38.4,30.13,WSW,245,9.0,12.0,54,0.00,CLR,,0.00,WeatherDisplay:10.37,2013-02-14 03:10:00,
2013-02-13 21:15:00,55.0,38.6,30.13,SW,235,5.0,10.0,54,0.00,CLR,,0.00,WeatherDisplay:10.37,2013-02-14 03:15:00,
2013-02-13 21:20:00,55.5,38.6,30.13,SW,216,3.0,12.0,53,0.00,CLR,,0.00,WeatherDisplay:10.37,2013-02-14 03:20:00,
2013-02-13 21:25:00,56.0,38.6,30.13,SSW,205,7.0,11.0,52,0.00,CLR,,0.00,WeatherDisplay:10.37,2013-02-14 03:25:00,
2013-02-13 21:30:00,56.4,38.5,30.13,SSW,212,5.0,10.0,51,0.00,CLR,,0.00,WeatherDisplay:10.37,2013-02-14 03:30:00,
2013-02-13 21:35:00,56.8,38.9,30.12,SW,223,8.0,12.0,51,0.00,CLR,,0.00,WeatherDisplay:10.37,2013-02-14 03:35:00,
2013-02-13 21:40:00,56.8,38.3,30.13,SW,223,6.0,13.0,50,0.00,CLR,,0.00,WeatherDisplay:10.37,2013-02-14 03:40:00,
2013-02-13 21:45:00,56.7,38.3,30.12,SW,226,3.0,11.0,50,0.00,CLR,,0.00,WeatherDisplay:10.37,2013-02-14 03:45:00,
2013-02-13 21:50:00,57.0,38.0,30.13,SW,226,3.0,13.0,49,0.00,CLR,,0.00,WeatherDisplay:10.37,2013-02-14 03:50:00,
2013-02-13 21:55:00,57.0,38.0,30.12,SW,220,3.0,15.0,49,0.00,CLR,,0.00,WeatherDisplay:10.37,2013-02-14 03:55:00,
2013-02-13 22:00:00,57.5,38.5,30.12,SSW,212,9.0,12.0,49,0.00,CLR,,0.00,WeatherDisplay:10.37,2013-02-14 04:00:00,
2013-02-13 22:05:00,57.7,38.1,30.12,SW,218,6.0,11.0,48,0.00,CLR,,0.00,WeatherDisplay:10.37,2013-02-14 04:05:00,
2013-02-13 22:10:00,58.1,39.0,30.12,SW,215,3.0,10.0,49,0.00,CLR,,0.00,WeatherDisplay:10.37,2013-02-14 04:10:00,
2013-02-13 22:15:00,58.5,38.9,30.12,SSW,211,6.0,11.0,48,0.00,CLR,,0.00,WeatherDisplay:10.37,2013-02-14 04:15:00,
2013-02-13 22:20:00,58.6,37.3,30.12,SW,217,10.0,13.0,45,0.00,CLR,,0.00,WeatherDisplay:10.37,2013-02-14 04:20:00,
2013-02-13 22:25:00,58.5,37.8,30.12,SSW,208,3.0,12.0,46,0.00,CLR,,0.00,WeatherDisplay:10.37,2013-02-14 04:25:00,
2013-02-13 22:30:00,59.0,38.8,30.12,South,190,2.0,13.0,47,0.00,CLR,,0.00,WeatherDisplay:10.37,2013-02-14 04:30:00,
2013-02-13 22:35:00,59.5,38.1,30.12,SSW,196,10.0,14.0,45,0.00,CLR,,0.00,WeatherDisplay:10.37,2013-02-14 04:35:00,
2013-02-13 22:40:00,59.6,38.2,30.12,SSW,206,7.0,13.0,45,0.00,CLR,,0.00,WeatherDisplay:10.37,2013-02-14 04:40:00,
2013-02-13 22:45:00,59.6,37.6,30.11,SSW,206,8.0,13.0,44,0.00,CLR,,0.00,WeatherDisplay:10.37,2013-02-14 04:45:00,
2013-02-13 22:50:00,60.0,38.0,30.11,SSW,193,10.0,15.0,44,0.00,CLR,,0.00,WeatherDisplay:10.37,2013-02-14 04:50:00,
2013-02-13 22:55:00,60.2,38.2,30.11,South,188,3.0,13.0,44,0.00,CLR,,0.00,WeatherDisplay:10.37,2013-02-14 04:55:00,
2013-02-13 23:00:00,60.5,37.9,30.11,South,190,9.0,12.0,43,0.00,CLR,,0.00,WeatherDisplay:10.37,2013-02-14 05:00:00,
2013-02-13 23:05:00,60.5,38.5,30.11,South,191,5.0,11.0,44,0.00,CLR,,0.00,WeatherDisplay:10.37,2013-02-14 05:05:00,
2013-02-13 23:10:00,60.7,38.6,30.10,SW,218,3.0,15.0,44,0.00,CLR,,0.00,WeatherDisplay:10.37,2013-02-14 05:10:00,
2013-02-13 23:15:00,60.8,38.1,30.10,SW,230,6.0,13.0,43,0.00,CLR,,0.00,WeatherDisplay:10.37,2013-02-14 05:15:00,
2013-02-13 23:20:00,61.0,38.9,30.10,SSW,209,2.0,13.0,44,0.00,CLR,,0.00,WeatherDisplay:10.37,2013-02-14 05:20:00,
2013-02-13 23:25:00,61.4,38.7,30.10,SSW,198,2.0,10.0,43,0.00,CLR,,0.00,WeatherDisplay:10.37,2013-02-14 05:25:00,
2013-02-13 23:30:00,61.8,39.1,30.10,SSW,195,12.0,15.0,43,0.00,CLR,,0.00,WeatherDisplay:10.37,2013-02-14 05:30:00,
2013-02-13 23:35:00,61.8,38.4,30.10,SSW,196,6.0,14.0,42,0.00,CLR,,0.00,WeatherDisplay:10.37,2013-02-14 05:35:00,
2013-02-13 23:40:00,62.0,38.6,30.09,SSW,206,7.0,14.0,42,0.00,CLR,,0.00,WeatherDisplay:10.37,2013-02-14 05:40:00,
2013-02-13 23:45:00,62.2,38.8,30.09,SSW,213,3.0,10.0,42,0.00,CLR,,0.00,WeatherDisplay:10.37,2013-02-14 05:45:00,
2013-02-13 23:50:00,62.7,39.3,30.09,SSW,202,3.0,11.0,42,0.00,CLR,,0.00,WeatherDisplay:10.37,2013-02-14 05:50:00,
2013-02-13 23:55:00,63.0,38.3,30.08,SSW,202,3.0,10.0,40,0.00,CLR,,0.00,WeatherDisplay:10.37,2013-02-14 05:55:00,